Kirksville Regional Airport
KIRK : now visible

Airfield :











YOU CAN JOIN US ON...

 
LOGIN :

Register | Disclaimer

   EN    FR    IT 

 









Legend :    VFR   Marginal VFR   IFR   Intensive IFR   Very Intensive IFR
Visi :
Ceiling :
>= 8 km
>= 3000ft
5 to 8 km
1000 to 3000 ft
1500m to 5 km
500 to 1000 ft
800 to 1500m
200 to 500 ft
< 800m
< 200 ft
Symbols :   Thunderstorms  Fog  Heavy snow  Heavy precipitations  Wind > 20 kt






- Airport Elevation : 966 ft
- IATA code : IRK


KIRK - Kirksville Regional

CURRENT METAR :
  • 272355Z AUTO 24003KT 10SM OVC055 03/M04 A3020 RMK AO2 SLP238 60000 T00281044 10033 20022 55008

EXPIRED METARs :
  • 272255Z AUTO 00000KT 10SM OVC060 03/M04 A3020 RMK AO2 SLP238 T00281044
  • 272155Z AUTO VRB03KT 10SM OVC055 03/M05 A3022 RMK AO2 SLP247 T00331050

TAF N/A
KZKC FIR / North America



MET'MAP, your aeronautical weather chart ! - Copyright ORBIFLY December 2007 - Disclaimer

ORBIFLY MET'MAP TEAM :

Programming & Development : Alexandra Zaïnal
Concept & original design : Baudouin d'Aumeries
Assistance for programming : Marc-Olivier Méhu
Technical & hardware support : Manuel Goepfert

Contact : metmap@orbifly.com




SOURCES & CREDITS :

   NOAA       Earth
Advisory